Regional Weather Roundup
Issued by NWS

Home | Current Version | Previous Version | Graphics & Text | Print | Product List | Glossary On
Versions: 1 2 3 4 5 6 7 8 9 10 11 12 13 14 15 16 17 18 19 20 21 22 23 24 25 26 27 28
000
ASUS45 KTFX 230310
RWRMT
MONTANA REGIONAL WEATHER ROUNDUP
NATIONAL WEATHER SERVICE GREAT FALLS MT
800 PM MST THU FEB 22 2018

NOTE: "FAIR" INDICATES FEW OR NO CLOUDS BELOW 12000 FEET WITH NO
SIGNIFICANT WEATHER AND/OR OBSTRUCTIONS TO VISIBILITY.

MTZ001>007-043-230400-
WEST OF THE DIVIDE

CITY           SKY/WX    TMP DP  RH WIND       PRES   REMARKS
KALISPELL      FAIR      17   3  54 N12       30.12R WCI   4
MISSOULA       CLOUDY    19   8  62 W12       30.09R WCI   7
BUTTE          LGT SNOW  14   9  80 NE3       29.94R
MULLAN PASS    FAIR       7   4  87 CALM      29.93R
ANACONDA         N/A     12   3  67 NE6       30.00R WCI   3
DEER LODGE       N/A     10   1  67 NW13      30.02S WCI  -5
HAMILTON         N/A     18  10  73 MISG      30.04R
PLAINS           N/A     16   5  61 CALM      30.15R
RONAN            N/A     -4  -8  84 NE5       30.15R
$$

MTZ008-052>055-230400-
SOUTHWEST MONTANA

CITY           SKY/WX    TMP DP  RH WIND       PRES   REMARKS
BOZEMAN        MOCLDY     3  -1  83 NE6       30.04R WCI  -8
DILLON         CLOUDY     8   8 100 NE15      29.93R WCI  -9
ENNIS          CLOUDY     7   3  85 S6        30.00R WCI  -3
W YELLOWSTONE  FAIR       1   0  92 CALM      29.87R
THREE FORKS      N/A      5  -3  69 S2        30.03S
TWIN BRIDGES     N/A     15   4  61 N16       29.94R WCI  -1
$$

MTZ009-010-012-014-046-048-049-054-230400-
EAST SLOPES AND CENTRAL MONTANA

CITY           SKY/WX    TMP DP  RH WIND       PRES   REMARKS
CUT BANK       FAIR       2   0  91 N5        30.14S
GREAT FALLS    CLOUDY     1  -4  79 SW5       30.17S
MALMSTROM AFB  CLEAR     -3  -8  76 SW7       30.20S WCI -16
HELENA         FAIR      10  -1  61 W8        30.12R WCI  -2
AUGUSTA        MOCLDY    -3  -7  82 NW7       30.11S WCI -17
CHOTEAU          N/A      3   0  85 W6        30.16S WCI  -8
RAYNESFORD     MOCLDY     2  -3  79 CALM      30.14S
WHITE SULPHUR    N/A      0  -2  92 CALM      30.02R
$$

MTZ011-013-016-021-045-047-050-051-230400-
NORTH CENTRAL MONTANA

CITY           SKY/WX    TMP DP  RH WIND       PRES   REMARKS
HAVRE          FAIR      -4  -9  79 SW10      30.25S WCI -21
LEWISTOWN      FAIR      -2  -8  76 SE5       30.13S
N BAR RANCH    FAIR       3  -8  60 NW6       30.11S WCI  -8
CHINOOK          N/A    -11 -15  84 CALM      30.27S
GEYSER         MOCLDY     4  -3  72 SW8       30.13S WCI  -9
STANFORD       FAIR       2  -3  81 CALM      30.10F
$$

MTZ017>020-022>027-061-062-230400-
NORTHEAST MONTANA

CITY           SKY/WX    TMP DP  RH WIND       PRES   REMARKS
GLASGOW        FAIR     -11 -17  75 NW6       30.25R WCI -25
GLENDIVE       FAIR       0  -6  76 NW9       30.22R WCI -15
JORDAN           N/A     -9 -15  75 NW5       30.22S
MALTA          CLEAR    -13 -17  84 SW7       30.26S WCI -29
SIDNEY         FAIR      -3  -8  79 CALM      30.26R
WOLF POINT     FAIR      -8 -15  71 SW9       30.29R WCI -25
PLENTYWOOD       N/A      1  -2  85 CALM      30.21S
POPLAR           N/A     -9 -17  70 CALM      30.29R
SCOBEY           N/A     -3 -13  62 CALM      30.17R
$$

MTZ028>42-056>058-230400-
SOUTHCENTRAL AND SOUTHEAST MONTANA

CITY           SKY/WX    TMP DP  RH WIND       PRES   REMARKS
BAKER          MOCLDY    -1  -4  87 W9        30.16R WCI -16
BILLINGS       FAIR       7  -1  70 N9        30.14S WCI  -7
LIVINGSTON     FAIR      10   1  67 E14       30.05R WCI  -6
MILES CITY     FAIR      -7 -11  83 NW12      30.22R WCI -26
BIG TIMBER     CLOUDY     7  -2  66 NE9       30.11S WCI  -7
EKALAKA          N/A      2  -7  66 W2        30.07S
FORSYTH          N/A      0  -8  71 CALM      30.23R
LAUREL           N/A      7   0  72 N9        30.17R WCI  -7
$$

REGIONAL REPORTS...DAKOTAS

CITY           SKY/WX    TMP DP  RH WIND       PRES   REMARKS
WILLISTON      FAIR      -1  -6  79 CALM      30.24S
MINOT          FAIR       5  -1  76 SW6       30.20R WCI  -6
DICKINSON      MOCLDY     8   1  73 NW8       30.14R WCI  -4
BEACH          CLOUDY    -2  -6  84 NW5       30.21R
CROSBY         FAIR      -4  -9  77 W10       30.23R WCI -21
TIOGA          FAIR      -6  -8  92 W8        30.21R WCI -21
WATFORD CITY   FAIR      -4  -9  77 SW6       30.23R WCI -16
BISMARCK       CLOUDY    17  10  74 NW5       30.22S
GRAND FORKS    MOCLDY    19  15  84 S3        30.27F
FARGO          LGT SNOW  22  19  89 MISG      30.26F FOG
BUFFALO SD       N/A      4  -4  69 NW5       30.06S
RAPID CITY     FAIR       4  -2  76 NW9       30.09R WCI -10
$$

REGIONAL REPORTS...WYOMING/IDAHO/WASHINGTON

CITY           SKY/WX    TMP DP  RH WIND       PRES   REMARKS
GILLETTE       FAIR      -2  -7  79 CALM      30.05R
SHERIDAN       FAIR       9   0  67 CALM      30.10R
BUFFALO WY     FAIR      15  -4  42 NW8       30.04R WCI   4
CODY           FAIR       7   0  73 NE7       30.03R WCI  -5
YELLOWSTONE LA   N/A     -3  -7  82 NW3       29.87S
IDAHO FALLS    CLOUDY    26  14  60 S7        29.95R WCI  18
SALMON         FLURRIES  25  21  86 E10       29.93R WCI  15
BOISE          FAIR      22  14  71 E5        30.06R
SPOKANE        CLOUDY    22  15  75 SW7       30.18R WCI  13
$$

REGIONAL REPORTS...ALBERTA

CITY           SKY/WX    TMP DP  RH WIND       PRES   REMARKS
CALGARY        CLEAR      9   5  85 S8        30.09F WCI  -4
CARDSTON         N/A     -6 -11  77 E1          N/A
EDMONTON       CLEAR     18   7  62 S8        30.08F WCI   7
FORT MCMURRAY  CLEAR     16   9  73 S9        30.00F WCI   4
HIGH LEVEL     PTCLDY    21   5  49 S7        29.81F WCI  13
LLOYDMINSTER   CLEAR      9   5  85 SW10      30.12F WCI  -6
MEDICINE HAT   MOCLDY     5   1  85 SW10      30.23F WCI -10
PEACE RIVER    MOCLDY     9   1  72 SW5       29.93F
PINCHER CREEK  CLEAR      3   1  92 W3        30.12S
WATERTON GATE    N/A     -6 -13  71 SW1         N/A
$$

REGIONAL REPORTS...SASKATCHEWAN

CITY           SKY/WX    TMP DP  RH WIND       PRES   REMARKS
CORONACH         N/A     -4  -8  84 W1          N/A
CYPRESS HILLS    N/A      7   3  85 NW5         N/A
ESTEVAN        PTCLDY    -4  -9  77 SW8       30.22R WCI -19
MOOSE JAW        N/A      9   3  78 W7          N/A  WCI  -3
PRINCE ALBERT  PTCLDY     3  -2  78 SW2       30.19S
REGINA         FLURRIES   9   5  85 W8        30.20R WCI  -4
ROCKGLEN         N/A      9   3  78 NW9         N/A  WCI  -5
SASKATOON      PTCLDY     0  -4  85 W8        30.20F WCI -15
SWIFT CURRENT  FLURRIES   9   5  85 W10       30.15F WCI  -6
VAL MARIE        N/A    -20 -26  76 N1          N/A
$$




USA.gov is the U.S. government's official web portal to all federal, state and local government web resources and services.